TimeICT,TemperatureF,Dew PointF,Humidity,Sea Level PressureIn,VisibilityMPH,Wind Direction,Wind SpeedMPH,Gust SpeedMPH,PrecipitationIn,Events,Conditions,WindDirDegrees,DateUTC
12:00 AM,82.4,73.4,74,29.80,6.2,SW,4.6,-,N/A,,Mostly Cloudy,230,2012-10-03 17:00:00
12:30 AM,80.6,73.4,79,29.80,6.2,SW,4.6,-,N/A,,Mostly Cloudy,230,2012-10-03 17:30:00
1:00 AM,81,73,71,29.80,6,SSW,8.1,,,,Scattered Clouds,210,2012-10-03 18:00:00
1:00 AM,80.6,73.4,79,29.77,6.2,SSW,8.1,-,N/A,,Mostly Cloudy,210,2012-10-03 18:00:00
1:30 AM,80.6,73.4,79,29.77,6.2,SSW,6.9,-,N/A,,Mostly Cloudy,210,2012-10-03 18:30:00
2:00 AM,80.6,73.4,79,29.77,6.2,WSW,3.5,-,N/A,,Mostly Cloudy,240,2012-10-03 19:00:00
2:30 AM,80.6,73.4,79,29.77,6.2,SW,6.9,-,N/A,,Mostly Cloudy,220,2012-10-03 19:30:00
3:00 AM,80.6,73.4,79,29.77,6.2,SSW,6.9,-,N/A,,Mostly Cloudy,210,2012-10-03 20:00:00
3:30 AM,82.4,75.2,79,29.74,6.2,WSW,3.5,-,N/A,,Mostly Cloudy,240,2012-10-03 20:30:00
4:00 AM,82.4,75.2,79,29.74,6.2,SW,4.6,-,N/A,,Mostly Cloudy,220,2012-10-03 21:00:00
4:30 AM,82.4,75.2,79,29.74,6.2,SW,3.5,-,N/A,,Mostly Cloudy,230,2012-10-03 21:30:00
5:00 AM,82.4,75.2,79,29.74,6.2,WSW,3.5,-,N/A,,Mostly Cloudy,250,2012-10-03 22:00:00
5:30 AM,80.6,75.2,84,29.74,6.2,WSW,4.6,-,N/A,,Mostly Cloudy,250,2012-10-03 22:30:00
6:00 AM,80.6,73.4,79,29.74,6.2,WSW,3.5,-,N/A,,Scattered Clouds,240,2012-10-03 23:00:00
6:30 AM,80.6,73.4,79,29.74,6.2,SW,8.1,-,N/A,,Scattered Clouds,230,2012-10-03 23:30:00
7:00 AM,81,74,73,29.78,6,SW,8.1,,,,Scattered Clouds,230,2012-10-04 00:00:00
7:00 AM,80.6,73.4,79,29.77,6.2,SW,8.1,-,N/A,,Scattered Clouds,230,2012-10-04 00:00:00
7:30 AM,82.4,73.4,74,29.77,6.2,WSW,5.8,-,N/A,,Scattered Clouds,240,2012-10-04 00:30:00
8:00 AM,82.4,73.4,74,29.77,6.2,WSW,4.6,-,N/A,,Scattered Clouds,240,2012-10-04 01:00:00
8:30 AM,86.0,71.6,62,29.80,6.2,WSW,9.2,-,N/A,,Scattered Clouds,240,2012-10-04 01:30:00
9:00 AM,86.0,71.6,62,29.80,6.2,West,8.1,-,N/A,,Scattered Clouds,260,2012-10-04 02:00:00
9:30 AM,86.0,69.8,58,29.80,6.2,WSW,8.1,-,N/A,,Scattered Clouds,240,2012-10-04 02:30:00
10:00 AM,87.8,69.8,55,29.80,6.2,West,5.8,-,N/A,,Scattered Clouds,260,2012-10-04 03:00:00
10:30 AM,89.6,71.6,55,29.80,6.2,WNW,8.1,-,N/A,,Scattered Clouds,300,2012-10-04 03:30:00
11:00 AM,89.6,71.6,55,29.80,6.2,West,5.8,-,N/A,,Scattered Clouds,280,2012-10-04 04:00:00
11:30 AM,91.4,69.8,49,29.80,6.2,WNW,8.1,-,N/A,,Scattered Clouds,300,2012-10-04 04:30:00
12:00 PM,91.4,69.8,49,29.77,6.2,WNW,6.9,-,N/A,,Scattered Clouds,300,2012-10-04 05:00:00
12:30 PM,91.4,71.6,52,29.74,6.2,West,6.9,-,N/A,,Mostly Cloudy,260,2012-10-04 05:30:00
1:00 PM,92,70,39,29.75,6,West,6.9,,,,Scattered Clouds,280,2012-10-04 06:00:00
1:00 PM,93.2,69.8,46,29.74,6.2,West,6.9,-,N/A,,Mostly Cloudy,280,2012-10-04 06:00:00
1:30 PM,91.4,71.6,52,29.74,6.2,WNW,11.5,-,N/A,,Mostly Cloudy,300,2012-10-04 06:30:00
2:00 PM,91.4,69.8,49,29.71,6.2,WNW,9.2,-,N/A,,Mostly Cloudy,300,2012-10-04 07:00:00
2:30 PM,91.4,69.8,49,29.68,6.2,NNW,6.9,-,N/A,,Mostly Cloudy,330,2012-10-04 07:30:00
3:00 PM,93.2,68.0,44,29.68,6.2,WSW,4.6,-,N/A,,Mostly Cloudy,240,2012-10-04 08:00:00
3:30 PM,91.4,73.4,55,29.68,6.2,West,4.6,-,N/A,,Mostly Cloudy,260,2012-10-04 08:30:00
4:00 PM,89.6,73.4,59,29.68,6.2,NNW,8.1,-,N/A,,Mostly Cloudy,330,2012-10-04 09:00:00
4:30 PM,87.8,73.4,62,29.68,6.2,WNW,9.2,-,N/A,,Mostly Cloudy,300,2012-10-04 09:30:00
5:00 PM,87.8,73.4,62,29.68,6.2,WSW,6.9,-,N/A,,Mostly Cloudy,240,2012-10-04 10:00:00
5:30 PM,87.8,73.4,62,29.68,6.2,West,4.6,-,N/A,,Mostly Cloudy,270,2012-10-04 10:30:00
6:00 PM,87.8,75.2,66,29.71,6.2,NNW,13.8,-,N/A,,Mostly Cloudy,330,2012-10-04 11:00:00
6:30 PM,86.0,73.4,66,29.71,6.2,NNW,9.2,-,N/A,,Mostly Cloudy,330,2012-10-04 11:30:00
7:00 PM,86,75,62,29.73,6,NNW,5.8,,,,Scattered Clouds,330,2012-10-04 12:00:00
7:00 PM,86.0,75.2,70,29.71,6.2,NNW,5.8,-,N/A,,Mostly Cloudy,330,2012-10-04 12:00:00
7:30 PM,84.2,73.4,70,29.74,6.2,ESE,5.8,-,N/A,,Mostly Cloudy,120,2012-10-04 12:30:00
8:00 PM,84.2,77.0,79,29.74,6.2,SSW,5.8,-,N/A,,Mostly Cloudy,200,2012-10-04 13:00:00
8:30 PM,82.4,73.4,74,29.74,6.2,SW,8.1,-,N/A,,Mostly Cloudy,230,2012-10-04 13:30:00
9:00 PM,82.4,75.2,79,29.77,6.2,SSW,5.8,-,N/A,,Mostly Cloudy,210,2012-10-04 14:00:00
9:30 PM,82.4,75.2,79,29.77,6.2,SW,4.6,-,N/A,,Mostly Cloudy,230,2012-10-04 14:30:00
10:00 PM,82.4,75.2,79,29.77,6.2,WSW,4.6,-,N/A,,Mostly Cloudy,240,2012-10-04 15:00:00
10:30 PM,82.4,75.2,79,29.80,6.2,SW,8.1,-,N/A,,Mostly Cloudy,230,2012-10-04 15:30:00
11:00 PM,82.4,75.2,79,29.80,6.2,SW,9.2,-,N/A,,Scattered Clouds,220,2012-10-04 16:00:00
11:30 PM,84.2,77.0,79,29.80,6.2,SSW,5.8,-,N/A,,Scattered Clouds,200,2012-10-04 16:30:00